Back to catalog

HULIANWANG DIGUI-186

AliveScienceLEO
NORAD 100211·PAYLOAD·🇨🇳 China

Launched Aug 4, 2026 from Wenchang Space Launch Site

Loading…

Next Passes (next 24 hours)

TLE

FreshSource: Space-Track

Epoch: Sep 14, 2026, 08:06 UTC

1 A0211U 26176J   26257.33795589 -.00000089  00000-0  75873-4 0  9999
2 A0211  49.9936 245.7931 0000203   4.4956 355.5918 13.29327794  5480

Track HULIANWANG DIGUI-186 in real time with AllMySat

Download on the App Store